Location: Orange Harbor Mobile Home Park
(26.6923°N, 81.7937°W)
Time: 23:22:24
(UTC+00:00)

Meteor 2-9 - Pass Details

Date: 19 September 2020
Orbit: 801 x 880 km, 81.3° (Epoch: 25 October)

Event Time Altitude Azimuth Distance (km) Brightness Sun altitude
Rises 09:30:56 0° 352° (N) 3,361 7.9 -23.7°
Reaches altitude 10° 09:33:21 10° 353° (N) 2,415 7.1 -23.2°
Maximum altitude 09:38:48 88° 262° (W) 813 4.5 -22.0°
Drops below altitude 10° 09:44:10 10° 175° (S) 2,371 7.0 -20.9°
Sets 09:46:31 0° 175° (S) 3,296 7.7 -20.3°
